sat.trackr.live / text

‹ back to catalog

STARLINK-3141

NORAD 49459 · 2021-104BD

PAYLOAD ACTIVE UNKNOWN

§ Identity

Operator
Country
US
Launch date
2021-11-13
Launch site
AFETR
Launch vehicle
Mass (kg)
RCS (m²)

Purposes: comms

External: N2YO · Heavens-Above · Gunter

§ Orbital elements

Epoch: 2026-05-25T05:27:35.630208Z

Period
95.44 min
Inclination
53.2126°
Eccentricity
0.0000965
Mean motion
15.08827934 rev/d
Perigee alt
539.1 km
Apogee alt
540.4 km
Semi-major
6,917.9 km
B*
-4.3958e-5
RAAN
235.5291°
Arg perigee
124.4486°
Mean anomaly
235.6597°
Rev number
25,033

§ Raw data

STARLINK-31411 49459U 21104BD  26145.22749572 -.00000987  00000+0 -43958-4 0  99932 49459  53.2126 235.5291 0000965 124.4486 235.6597 15.08827934250335

JSON: /api/v1/satellites/49459 · /tle

For live sub-satellite position, see the globe view (requires WebGL).

§ Visibility from observer

Set your observer location to see the next 7 days of passes ≥ 10°. The values pass through the URL so the page stays shareable.

No JS? Fill the form by hand. The geolocation button needs JavaScript.